BEIDOU 13

Last updated on Wed May 15 2019 04:07:46 GMT+0100 (British Summer Time)

1 38251U 12018B 19134.50932775 -.00000100 00000-0 10000-3 0 9993 2 38251 56.5471 30.3119 0025365 234.7364 267.0979 1.86233562 48048
UTC large
Height (km)
Speed (km/s)
/
Latitude / Longitude
Inclination (degrees)
Orbital Period (minutes)
Azimuth
Elevation
Range (km)
Doppler Factor

Next 0 passes for location: London (51.5072 / 0.1276)

Sorry there are no passes over London.